Карточка аэропорта UWOO

Внимание!
Информация на этой странице в стадии наполнения.
Если вы не увидели какой-то информации, или заметили неточность - пожалуйста сообщите нам!
Спасибо!
Команда RU-STAFF
Название аэропортаОренбург
Название аэропорта (англ.)Orenburg
Превышение387 ft. (118 m.)
Координаты51°48', 55°27'
Высота перехода3000 ft
Эшелон переходаQNH>=1013hPa:FL40; QNH<1013hPa:FL50; QNH<977hPa:FL60
Коды ответчика2440-2443
Зона ОрВДСамара РПИ (UWWW)
Данные METARUWOO 160600Z 05005MPS 9999 SCT049 21/16 Q1011 R08/CLRD60 NOSIG RMK QFE748/0997
Проноз погоды (TAF)UWOO 160457Z 1606/1706 02005G13MPS 9999 BKN020CB TX26/1610Z TN16/1701Z TEMPO 1606/1615 06007G19MPS 6000 -TSRA BKN016CB
NOTAMshow/hide NOTAM
AWOS   TABLE

Информация о ВПП

ВПП Длина ВПП (м.) Покрытие Курс ВПП Частота ILS
082500Асфальтобетон79109.9
262500Асфальтобетон259109.3

Диспетчерские позиции

Позывной Наименование органа УВД Частота
UWOO_TWRОренбург-Вышка128.000
UWOO_R_APPОренбург-Круг120.400



Спутниковое изображение